WST607 MYAM-MYNN

Flight info

Callsign WST607
Flight time 0h 19m
Altitude 12000
Route MRRSH BR70V ZQA
Aircraft E145/M-SDFGIRW/S

Departure

Time 2026-04-30 20:13
Airport Leonard M. Thompson International Airport (MYAM)

Arrival

Time 2026-04-30 20:32
Airport Lynden Pindling International Airport (MYNN)
Time Latitude Longitude Altitude Speed Heading
2026-04-30 20:03 26.51274 -77.07806 15 ft 0 kts 327°
2026-04-30 20:09 26.51275 -77.07809 15 ft 0 kts 290°
2026-04-30 20:09 26.51206 -77.07835 16 ft 10 kts 234°
2026-04-30 20:10 26.51155 -77.07867 17 ft 7 kts 86°
2026-04-30 20:10 26.51154 -77.07800 17 ft 9 kts 91°
2026-04-30 20:10 26.51158 -77.07716 17 ft 9 kts 85°
2026-04-30 20:11 26.51089 -77.07635 18 ft 10 kts 179°
2026-04-30 20:11 26.51030 -77.07612 18 ft 8 kts 114°
2026-04-30 20:11 26.51037 -77.07593 18 ft 3 kts 296°
2026-04-30 20:12 26.51035 -77.07739 18 ft 50 kts 269°
2026-04-30 20:12 26.51017 -77.08419 17 ft 119 kts 268°
2026-04-30 20:12 26.50985 -77.09479 217 ft 146 kts 269°
2026-04-30 20:13 26.50812 -77.10624 787 ft 153 kts 243°
2026-04-30 20:13 26.50066 -77.11482 1358 ft 164 kts 212°
2026-04-30 20:13 26.48889 -77.12041 1654 ft 200 kts 199°
2026-04-30 20:13 26.47466 -77.12476 2124 ft 224 kts 195°
2026-04-30 20:14 26.45861 -77.12874 2721 ft 242 kts 194°
2026-04-30 20:14 26.44187 -77.13259 3444 ft 252 kts 193°
2026-04-30 20:14 26.42435 -77.13654 4304 ft 256 kts 194°
2026-04-30 20:14 26.40684 -77.14048 5122 ft 260 kts 193°
2026-04-30 20:15 26.38891 -77.14450 5939 ft 263 kts 193°
2026-04-30 20:15 26.37096 -77.14852 6695 ft 268 kts 193°
2026-04-30 20:15 26.35234 -77.15269 7437 ft 273 kts 193°
2026-04-30 20:15 26.33344 -77.15692 8170 ft 278 kts 194°
2026-04-30 20:16 26.31433 -77.16120 8892 ft 283 kts 194°
2026-04-30 20:16 26.29481 -77.16557 9593 ft 287 kts 194°
2026-04-30 20:16 26.27509 -77.16997 10270 ft 292 kts 194°
2026-04-30 20:16 26.25460 -77.17456 10794 ft 303 kts 195°
2026-04-30 20:17 26.23360 -77.17926 11244 ft 315 kts 195°
2026-04-30 20:17 26.21138 -77.18424 11732 ft 325 kts 195°
2026-04-30 20:17 26.18854 -77.18935 11921 ft 345 kts 195°
2026-04-30 20:17 26.16389 -77.19485 11933 ft 368 kts 195°
2026-04-30 20:18 26.13798 -77.20063 11935 ft 388 kts 195°
2026-04-30 20:18 26.11075 -77.20670 11933 ft 403 kts 194°
2026-04-30 20:18 26.08354 -77.21275 11947 ft 387 kts 195°
2026-04-30 20:18 26.05716 -77.21863 11927 ft 384 kts 194°
2026-04-30 20:19 26.03083 -77.22450 11924 ft 382 kts 195°
2026-04-30 20:19 26.01308 -77.22845 11924 ft 380 kts 194°
2026-04-30 20:19 25.97835 -77.23618 11931 ft 378 kts 195°
2026-04-30 20:19 25.95241 -77.24195 11928 ft 377 kts 194°
2026-04-30 20:20 25.92814 -77.24734 11927 ft 375 kts 195°
2026-04-30 20:20 25.91007 -77.25137 11924 ft 375 kts 195°
2026-04-30 20:20 25.88456 -77.25703 11924 ft 374 kts 194°
2026-04-30 20:20 25.85933 -77.26263 11925 ft 373 kts 195°
2026-04-30 20:21 25.83382 -77.26829 11923 ft 373 kts 195°
2026-04-30 20:21 25.80818 -77.27399 11917 ft 372 kts 195°
2026-04-30 20:21 25.78268 -77.27964 11922 ft 371 kts 194°
2026-04-30 20:21 25.75718 -77.28526 11919 ft 371 kts 195°
2026-04-30 20:22 25.73280 -77.29359 11932 ft 367 kts 203°
2026-04-30 20:22 25.70856 -77.30298 11926 ft 366 kts 203°
2026-04-30 20:22 25.68440 -77.31245 11926 ft 366 kts 203°
2026-04-30 20:22 25.66023 -77.32197 11927 ft 366 kts 203°
2026-04-30 20:23 25.63585 -77.33157 11928 ft 366 kts 203°
2026-04-30 20:23 25.61170 -77.34109 11933 ft 366 kts 203°
2026-04-30 20:23 25.58765 -77.35057 11933 ft 366 kts 203°
2026-04-30 20:23 25.56373 -77.35999 11931 ft 366 kts 203°
2026-04-30 20:24 25.53927 -77.36963 11935 ft 366 kts 203°
2026-04-30 20:24 25.51531 -77.37906 11926 ft 366 kts 203°
2026-04-30 20:24 25.49107 -77.38859 11931 ft 366 kts 203°
2026-04-30 20:24 25.46688 -77.39810 11934 ft 367 kts 203°
2026-04-30 20:25 25.41880 -77.41699 11552 ft 365 kts 203°
2026-04-30 20:25 25.39465 -77.42647 11228 ft 358 kts 202°
2026-04-30 20:26 25.34966 -77.44410 10587 ft 326 kts 203°
2026-04-30 20:26 25.30822 -77.46036 9905 ft 303 kts 202°
2026-04-30 20:26 25.28838 -77.46814 9497 ft 298 kts 202°
2026-04-30 20:27 25.24924 -77.48349 8354 ft 299 kts 201°
2026-04-30 20:27 25.21118 -77.49838 7067 ft 273 kts 201°
2026-04-30 20:28 25.17632 -77.51203 5779 ft 255 kts 201°
2026-04-30 20:28 25.14323 -77.52497 4510 ft 245 kts 201°
2026-04-30 20:29 25.11249 -77.53391 3225 ft 209 kts 171°
2026-04-30 20:30 25.08118 -77.50800 1472 ft 163 kts 147°
2026-04-30 20:30 25.05929 -77.48425 271 ft 132 kts 133°
2026-04-30 20:31 25.04263 -77.46546 7 ft 70 kts 130°
2026-04-30 20:32 25.04315 -77.46349 7 ft 30 kts 314°
2026-04-30 20:32 25.04605 -77.46669 7 ft 30 kts 313°
2026-04-30 20:33 25.04748 -77.46696 7 ft 23 kts 45°
2026-04-30 20:33 25.04800 -77.46536 7 ft 0 kts 182°